Location: Bismarck
(46.7731°N, 100.8200°W)
Time: 10:03:16
(UTC-06:00)

ISS - All Passes

Search period start: 05 March 2015 00:00
Search period end: 15 March 2015 01:00
Orbit: 397 x 408 km, 51.6° (Epoch: 05 March)

Date Brightness Start Highest point End Pass type
(mag) Time Alt. Az. Time Alt. Az. Time Alt. Az.
05 Mar - 07:58:59 10° SSE 08:00:44 14° SE 08:02:33 10° E daylight
05 Mar - 09:33:32 10° WSW 09:36:45 82° SSE 09:40:00 10° ENE daylight
05 Mar - 11:10:24 10° WNW 11:13:25 35° N 11:16:27 10° ENE daylight
05 Mar - 12:47:15 10° WNW 12:50:19 39° NNE 12:53:23 10° E daylight
05 Mar - 14:23:40 10° WNW 14:26:53 61° SSW 14:30:05 10° SE daylight
05 Mar - 16:02:29 10° SW 16:02:48 10° SW 16:03:00 10° SW daylight
06 Mar - 08:40:47 10° SW 08:43:55 48° SSE 08:47:03 10° ENE daylight
06 Mar - 10:17:18 10° W 10:20:24 43° NNW 10:23:31 10° ENE daylight
06 Mar - 11:54:17 10° WNW 11:57:17 34° N 12:00:17 10° ENE daylight
06 Mar - 13:30:45 10° WNW 13:34:00 82° NNE 13:37:15 10° ESE daylight
06 Mar - 15:07:49 10° W 15:10:07 18° SW 15:12:22 10° S daylight
07 Mar - 07:48:18 10° SSW 07:51:06 28° SE 07:53:57 10° E daylight
07 Mar - 09:24:12 10° W 09:27:24 58° NNW 09:30:36 10° ENE daylight
07 Mar - 11:01:14 10° WNW 11:04:12 32° N 11:07:11 10° ENE daylight
07 Mar - 12:37:51 10° WNW 12:41:02 55° NNE 12:44:14 10° E daylight
07 Mar - 14:14:27 10° W 14:17:21 30° SW 14:20:14 10° SSE daylight
08 Mar - 07:56:14 10° S 07:58:19 16° SE 08:00:29 10° E daylight
08 Mar - 09:31:10 10° WSW 09:34:24 87° NW 09:37:39 10° ENE daylight
08 Mar - 11:08:05 10° WNW 11:11:06 34° N 11:14:07 10° ENE daylight
08 Mar - 12:44:53 10° WNW 12:47:59 41° NNE 12:51:05 10° E daylight
08 Mar - 14:21:20 10° WNW 14:24:29 52° SSW 14:27:39 10° SE daylight
09 Mar - 08:38:16 10° SW 08:41:27 56° SSE 08:44:38 10° ENE daylight
09 Mar - 10:14:54 10° W 10:17:59 40° NNW 10:21:04 10° ENE daylight
09 Mar - 11:51:51 10° WNW 11:54:52 35° N 11:57:53 10° ENE daylight
09 Mar - 13:28:17 10° WNW 13:31:32 88° SSW 13:34:47 10° ESE daylight
09 Mar - 15:05:34 10° W 15:07:36 15° SW 15:09:33 10° S daylight
10 Mar - 07:45:36 10° SSW 07:48:32 32° SE 07:51:29 10° ENE daylight
10 Mar - 09:21:41 10° W 09:24:53 53° NNW 09:28:03 10° ENE daylight
10 Mar - 10:58:44 10° WNW 11:01:42 32° N 11:04:41 10° ENE daylight
10 Mar - 12:35:17 10° WNW 12:38:30 61° NNE 12:41:42 10° ESE daylight
10 Mar - 14:11:58 10° W 14:14:45 26° SW 14:17:30 10° SSE daylight
11 Mar - 06:53:18 10° S 06:55:39 19° SE 06:58:03 10° E visible
11 Mar - 08:28:32 10° WSW 08:31:46 78° NNW 08:35:01 10° ENE daylight
11 Mar - 10:05:30 10° WNW 10:08:30 33° N 10:11:30 10° ENE daylight
11 Mar - 11:42:15 10° WNW 11:45:22 44° NNE 11:48:29 10° E daylight
11 Mar - 13:18:42 10° WNW 13:21:49 45° SW 13:24:55 10° SE daylight
12 Mar - 06:01:59 10° SSE 06:02:47 11° SE 06:03:42 10° ESE visible
12 Mar - 07:35:30 10° SW 07:38:42 65° SSE 07:41:56 10° ENE daylight
12 Mar - 09:12:13 10° W 09:15:17 38° N 09:18:20 10° ENE daylight
12 Mar - 10:49:08 10° WNW 10:52:10 36° N 10:55:12 10° ENE daylight
12 Mar - 12:25:33 10° WNW 12:28:47 78° SSW 12:32:01 10° ESE daylight
12 Mar - 14:03:07 10° WSW 14:04:47 13° SW 14:06:22 10° SSW daylight
13 Mar - 06:42:39 10° SSW 06:45:41 37° SE 06:48:43 10° ENE visible
13 Mar - 08:18:54 10° W 08:22:04 49° NNW 08:25:13 10° ENE daylight
13 Mar - 09:55:55 10° WNW 09:58:54 33° N 10:01:54 10° ENE daylight
13 Mar - 11:32:26 10° WNW 11:35:40 68° NNE 11:38:53 10° ESE daylight
13 Mar - 13:09:14 10° W 13:11:52 23° SW 13:14:28 10° SSE daylight
14 Mar - 05:50:07 10° SSW 05:52:41 22° SE 05:55:16 10° E visible
14 Mar - 07:25:38 10° WSW 07:28:52 70° NNW 07:32:06 10° ENE visible
14 Mar - 09:02:37 10° WNW 09:05:37 33° N 09:08:36 10° ENE daylight
14 Mar - 10:39:19 10° WNW 10:42:28 47° NNE 10:45:36 10° E daylight
14 Mar - 12:15:49 10° WNW 12:18:51 39° SW 12:21:53 10° SE daylight
